Date String (YYYY-MM-DD hh:mm:ss) UTC,Instrument flags,absolute air pressure of the measurement (hPa),sample flow rate (lpm),inlet stack bypass flow (lpm),air temperature of the measurement (°C),ambient temperature measured by the external sensor (°C),aerosol sample conditioner tube jacket temperature (°C),OPC LED temperature (°C),internal box temperature (°C),relative humidity of the measurement (%),span deviation,mass concentration of particles derived from Lorenz-Mie calculation of OPC scattering (μg/m³),mass concentration of particles derived from Lorenz-Mie calculation of OPC scattering (μg/m³),mass concentration of particles derived from Lorenz-Mie calculation of OPC scattering (μg/m³)
DateTimeUTC,F1_M11,P_M11,Q1_M11,Q2_M11,T1_M11,T2_M11,T3_M11,T4_M11,T5_M11,U1_M11,ZSPAN_M11,X2_M11,X0_M11,X1_M11
2023-06-14 14:00:00,SystemResetWarning,0827.8,5.02,000.00,029.2,027.6,000.0,037.7,030.8,27.5,0000.0,0002.71,0004.97,0002.00
2023-06-14 14:01:00,SystemResetWarning,0827.8,5.00,000.00,029.2,027.6,000.0,037.8,030.7,26.0,0000.0,0002.71,0005.06,0002.00
2023-06-14 14:02:00,SystemResetWarning,0827.8,5.00,000.00,029.3,027.6,000.0,037.8,030.7,25.6,0000.0,0002.71,0005.30,0001.99
2023-06-14 14:03:00,SystemResetWarning,0827.8,5.00,000.00,029.3,027.7,000.0,037.8,030.8,25.4,0000.0,0002.63,0005.15,0001.97
2023-06-14 14:04:00,SystemResetWarning,0827.8,5.00,000.00,029.3,027.7,000.0,037.8,030.8,26.7,0000.0,0002.57,0005.29,0001.95
2023-06-14 14:05:00,SystemResetWarning,0827.8,5.00,000.00,029.3,027.7,000.0,037.8,030.8,25.8,0000.0,0002.52,0005.33,0001.92
2023-06-14 14:06:00,SystemResetWarning,0827.8,5.01,000.00,029.3,027.7,000.0,037.8,030.8,24.0,0000.0,0002.51,0005.30,0001.91
2023-06-14 14:07:00,SystemResetWarning,0827.8,5.00,000.00,029.3,027.7,000.0,037.8,030.8,25.4,0000.0,0002.51,0005.16,0001.91
2023-06-14 14:08:00,SystemResetWarning,0827.8,5.00,000.00,029.3,027.7,000.0,037.8,030.8,28.3,0000.0,0002.53,0005.14,0001.93
2023-06-14 14:09:00,SystemResetWarning,0827.8,5.00,000.00,029.3,027.7,000.0,037.8,030.8,29.9,0000.0,0002.57,0005.28,0001.96
2023-06-14 14:10:00,SystemResetWarning,0827.8,5.00,000.00,029.3,027.7,000.0,037.8,030.8,29.7,0000.0,0002.58,0005.35,0001.98
2023-06-14 14:11:00,SystemResetWarning,0827.9,4.99,000.00,029.3,027.7,000.0,037.8,030.8,28.7,0000.0,0002.63,0005.50,0002.01
2023-06-14 14:12:00,SystemResetWarning,0827.8,5.00,000.00,029.3,027.7,000.0,037.8,030.9,28.8,0000.0,0002.65,0005.41,0002.02
2023-06-14 14:13:00,SystemResetWarning,0827.8,5.00,000.00,029.3,027.7,000.0,037.8,030.9,25.9,0000.0,0002.63,0005.04,0002.03
2023-06-14 14:14:00,SystemResetWarning,0827.8,5.00,000.00,029.3,027.7,000.0,037.9,030.9,26.6,0000.0,0002.68,0005.35,0002.05
2023-06-14 14:15:00,SystemResetWarning,0827.8,5.01,000.00,029.4,027.8,000.0,037.9,030.9,26.9,0000.0,0002.76,0005.39,0002.06
2023-06-14 14:16:00,SystemResetWarning,0827.8,5.01,000.00,029.4,027.8,000.0,037.9,030.9,25.7,0000.0,0002.82,0004.84,0002.09
2023-06-14 14:17:00,SystemResetWarning,0827.9,5.00,000.00,029.4,027.8,000.0,037.9,030.9,26.1,0000.0,0002.82,0004.86,0002.09
2023-06-14 14:18:00,SystemResetWarning,0827.8,4.99,000.00,029.4,027.8,000.0,037.9,030.9,25.3,0000.0,0002.84,0005.59,0002.09
2023-06-14 14:19:00,SystemResetWarning,0827.8,5.00,000.00,029.4,027.8,000.0,037.9,030.9,25.5,0000.0,0002.89,0006.47,0002.08
2023-06-14 14:20:00,SystemResetWarning,0827.8,4.99,000.00,029.4,027.8,000.0,037.9,030.9,26.3,0000.0,0002.86,0006.40,0002.07
2023-06-14 14:21:00,SystemResetWarning,0827.8,5.00,000.00,029.4,027.8,000.0,037.9,030.9,26.3,0000.0,0002.82,0006.25,0002.05
2023-06-14 14:22:00,SystemResetWarning,0827.8,5.00,000.00,029.4,027.9,000.0,037.9,030.9,26.4,0000.0,0002.74,0006.00,0002.02
2023-06-14 14:23:00,SystemResetWarning,0827.9,5.00,000.00,029.4,027.9,000.0,037.9,030.9,26.6,0000.0,0002.68,0006.93,0002.00
2023-06-14 14:24:00,SystemResetWarning,0828.0,5.01,000.00,029.4,027.9,000.0,037.9,030.9,26.9,0000.0,0002.66,0007.52,0002.00
2023-06-14 14:25:00,SystemResetWarning,0827.9,5.00,000.00,029.5,027.9,000.0,037.9,030.9,26.8,0000.0,0002.61,0007.51,0002.00
2023-06-14 14:26:00,SystemResetWarning,0827.8,5.00,000.00,029.5,027.9,000.0,037.9,031.0,26.3,0000.0,0002.55,0007.42,0001.99
2023-06-14 14:27:00,SystemResetWarning,0827.8,5.00,000.00,029.5,027.9,000.0,038.0,031.0,23.9,0000.0,0002.52,0007.42,0001.98
2023-06-14 14:28:00,SystemResetWarning,0827.8,4.99,000.00,029.5,027.9,000.0,038.0,031.0,24.4,0000.0,0002.52,0007.41,0001.99
2023-06-14 14:29:00,SystemResetWarning,0827.8,5.00,000.00,029.5,027.9,000.0,038.0,031.0,21.7,0000.0,0002.53,0007.67,0001.99
2023-06-14 14:30:00,SystemResetWarning,0827.8,5.00,000.00,029.5,028.0,000.0,038.0,031.0,22.1,0000.0,0002.49,0007.32,0001.98
2023-06-14 14:31:00,SystemResetWarning,0827.7,5.00,000.00,029.5,028.0,000.0,038.0,031.0,23.4,0000.0,0002.52,0007.42,0001.98
2023-06-14 14:32:00,SystemResetWarning,0827.8,5.00,000.00,029.5,028.0,000.0,038.0,031.1,21.7,0000.0,0002.53,0007.47,0001.99
2023-06-14 14:33:00,SystemResetWarning,0828.0,5.00,000.00,029.5,028.0,000.0,038.0,031.1,22.4,0000.0,0002.54,0007.55,0002.01
2023-06-14 14:34:00,SystemResetWarning,0827.8,5.00,000.00,029.6,028.0,000.0,038.0,031.0,21.7,0000.0,0002.55,0006.92,0002.02
2023-06-14 14:35:00,SystemResetWarning,0827.9,5.00,000.00,029.6,028.0,000.0,038.0,031.1,20.9,0000.0,0002.55,0006.16,0002.02
2023-06-14 14:36:00,SystemResetWarning,0827.8,5.00,000.00,029.6,028.0,000.0,038.1,031.1,22.0,0000.0,0002.55,0005.71,0002.02
2023-06-14 14:37:00,SystemResetWarning,0827.8,5.00,000.00,029.6,028.0,000.0,038.1,031.1,22.1,0000.0,0002.56,0005.62,0002.02
2023-06-14 14:38:00,SystemResetWarning,0827.8,4.99,000.00,029.6,028.0,000.0,038.1,031.1,22.2,0000.0,0002.61,0005.74,0002.04
2023-06-14 14:39:00,SystemResetWarning,0827.8,5.00,000.00,029.6,028.0,000.0,038.1,031.1,21.2,0000.0,0002.65,0005.84,0002.04
2023-06-14 14:40:00,SystemResetWarning,0827.9,5.01,000.00,029.6,028.1,000.0,038.1,031.1,20.5,0000.0,0002.65,0005.15,0002.07
2023-06-14 14:41:00,SystemResetWarning,0827.9,5.01,000.00,029.6,028.1,000.0,038.1,031.1,21.1,0000.0,0002.67,0004.43,0002.08
2023-06-14 14:42:00,SystemResetWarning,0827.8,5.00,000.00,029.6,028.1,000.0,038.1,031.1,20.5,0000.0,0002.68,0004.26,0002.13
2023-06-14 14:43:00,SystemResetWarning,0827.9,5.00,000.00,029.7,028.1,000.0,038.1,031.2,21.5,0000.0,0002.67,0004.04,0002.14
2023-06-14 14:44:00,SystemResetWarning,0827.9,5.00,000.00,029.7,028.1,000.0,038.1,031.2,21.5,0000.0,0002.69,0004.03,0002.14
2023-06-14 14:45:00,SystemResetWarning,0827.9,5.00,000.00,029.7,028.1,000.0,038.1,031.2,21.1,0000.0,0002.70,0004.05,0002.14
2023-06-14 14:46:00,SystemResetWarning,0827.9,5.00,000.00,029.7,028.1,000.0,038.2,031.2,21.6,0000.0,0002.72,0004.29,0002.16
2023-06-14 14:47:00,SystemResetWarning,0827.8,5.00,000.00,029.7,028.2,000.0,038.2,031.2,22.9,0000.0,0002.74,0004.19,0002.19
2023-06-14 14:48:00,SystemResetWarning,0827.8,5.00,000.00,029.7,028.2,000.0,038.2,031.2,23.3,0000.0,0002.75,0004.11,0002.23
2023-06-14 14:49:00,SystemResetWarning,0827.8,5.00,000.00,029.7,028.2,000.0,038.2,031.3,23.3,0000.0,0002.74,0004.10,0002.25
2023-06-14 14:50:00,SystemResetWarning,0827.8,5.00,000.00,029.7,028.2,000.0,038.2,031.3,22.5,0000.0,0002.72,0005.06,0002.27
2023-06-14 14:51:00,SystemResetWarning,0827.8,5.00,000.00,029.7,028.2,000.0,038.2,031.3,22.8,0000.0,0002.74,0005.36,0002.29
2023-06-14 14:52:00,SystemResetWarning,0827.8,5.00,000.00,029.8,028.2,000.0,038.2,031.2,23.6,0000.0,0002.72,0005.37,0002.29
2023-06-14 14:53:00,SystemResetWarning,0827.9,5.00,000.00,029.8,028.2,000.0,038.2,031.2,23.1,0000.0,0002.73,0005.78,0002.30
2023-06-14 14:54:00,SystemResetWarning,0827.8,5.00,000.00,029.8,028.2,000.0,038.2,031.3,23.2,0000.0,0002.75,0006.16,0002.32
2023-06-14 14:55:00,SystemResetWarning,0827.9,5.00,000.00,029.8,028.2,000.0,038.3,031.3,23.2,0000.0,0002.75,0006.34,0002.32
2023-06-14 14:56:00,SystemResetWarning,0827.9,5.01,000.00,029.8,028.2,000.0,038.3,031.3,22.9,0000.0,0002.76,0006.41,0002.33
2023-06-14 14:57:00,SystemResetWarning,0827.8,5.00,000.00,029.8,028.3,000.0,038.3,031.3,23.7,0000.0,0002.78,0006.26,0002.34
2023-06-14 14:58:00,SystemResetWarning,0827.9,5.00,000.00,029.8,028.3,000.0,038.3,031.3,24.0,0000.0,0002.82,0006.33,0002.33
2023-06-14 14:59:00,SystemResetWarning,0827.9,5.00,000.00,029.8,028.3,000.0,038.3,031.3,23.9,0000.0,0002.83,0006.38,0002.32
